TimeCST,TemperatureF,Dew PointF,Humidity,Sea Level PressureIn,VisibilityMPH,Wind Direction,Wind SpeedMPH,Gust SpeedMPH,PrecipitationIn,Events,Conditions,WindDirDegrees,DateUTC
12:53 AM,64.0,61.0,90,30.10,10.0,SSE,9.2,-,N/A,,Overcast,160,2013-01-11 06:53:00
1:15 AM,64.4,60.8,88,30.09,10.0,SSE,10.4,-,N/A,,Overcast,160,2013-01-11 07:15:00
1:50 AM,64.4,60.8,88,30.10,10.0,South,6.9,-,N/A,,Overcast,180,2013-01-11 07:50:00
1:53 AM,64.0,61.0,90,30.09,10.0,South,9.2,-,N/A,,Overcast,170,2013-01-11 07:53:00
2:53 AM,64.0,62.1,93,30.08,5.0,South,6.9,-,0.00,,Overcast,170,2013-01-11 08:53:00
3:40 AM,64.4,62.6,94,30.08,9.0,South,4.6,-,N/A,,Overcast,170,2013-01-11 09:40:00
3:53 AM,64.9,62.1,90,30.08,10.0,SSW,6.9,-,N/A,,Overcast,200,2013-01-11 09:53:00
4:53 AM,64.9,62.1,90,30.06,9.0,SSE,5.8,-,N/A,,Overcast,160,2013-01-11 10:53:00
5:07 AM,64.4,62.6,94,30.06,10.0,SSE,4.6,-,N/A,,Overcast,150,2013-01-11 11:07:00
5:21 AM,64.4,62.6,94,30.07,10.0,SSE,4.6,-,N/A,,Overcast,160,2013-01-11 11:21:00
5:29 AM,64.4,62.6,94,30.07,10.0,SSE,4.6,-,N/A,,Overcast,150,2013-01-11 11:29:00
5:53 AM,64.9,63.0,93,30.07,10.0,SSE,5.8,-,N/A,,Overcast,160,2013-01-11 11:53:00
6:03 AM,64.4,62.6,94,30.07,4.0,South,5.8,-,0.03,Rain,Rain,180,2013-01-11 12:03:00
6:48 AM,64.4,62.6,94,30.09,10.0,SSE,5.8,-,0.04,,Overcast,160,2013-01-11 12:48:00
6:53 AM,64.9,63.0,93,30.09,10.0,SSE,5.8,-,0.04,,Overcast,160,2013-01-11 12:53:00
7:53 AM,66.0,63.0,90,30.11,10.0,SSE,5.8,-,0.00,,Overcast,160,2013-01-11 13:53:00
8:35 AM,66.2,64.4,94,30.12,2.5,South,6.9,-,0.03,Rain,Light Rain,180,2013-01-11 14:35:00
8:43 AM,66.2,64.4,94,30.12,9.0,South,4.6,-,0.03,,Overcast,180,2013-01-11 14:43:00
8:53 AM,66.9,64.0,90,30.12,6.0,South,6.9,-,0.03,Rain,Light Rain,170,2013-01-11 14:53:00
9:53 AM,68.0,66.0,93,30.12,10.0,South,8.1,-,0.01,,Overcast,170,2013-01-11 15:53:00
10:46 AM,69.8,66.2,88,30.12,10.0,South,8.1,-,N/A,,Overcast,170,2013-01-11 16:46:00
10:53 AM,71.1,66.9,87,30.11,10.0,South,6.9,-,0.00,Rain,Light Rain,170,2013-01-11 16:53:00
11:26 AM,71.6,66.2,83,30.09,10.0,SSE,10.4,-,0.00,,Mostly Cloudy,160,2013-01-11 17:26:00
11:42 AM,73.4,66.2,78,30.07,10.0,SSE,10.4,19.6,0.00,,Mostly Cloudy,160,2013-01-11 17:42:00
11:53 AM,73.9,66.9,79,30.07,10.0,South,13.8,-,0.00,,Overcast,170,2013-01-11 17:53:00
12:00 PM,73.4,66.2,78,30.07,10.0,South,10.4,-,N/A,,Overcast,180,2013-01-11 18:00:00
12:53 PM,75.9,66.9,74,30.04,10.0,South,13.8,23.0,N/A,,Mostly Cloudy,180,2013-01-11 18:53:00
1:09 PM,75.2,66.2,73,30.04,10.0,South,15.0,20.7,N/A,,Mostly Cloudy,180,2013-01-11 19:09:00
2:53 PM,75.0,66.9,76,30.03,10.0,South,8.1,-,N/A,,Overcast,190,2013-01-11 20:53:00
3:13 PM,75.2,66.2,73,30.04,10.0,SW,6.9,-,N/A,,Overcast,220,2013-01-11 21:13:00
3:34 PM,71.6,66.2,83,30.05,1.8,West,5.8,-,0.09,Rain,Heavy Rain,260,2013-01-11 21:34:00
3:53 PM,69.1,66.9,93,30.04,1.5,Calm,Calm,-,0.17,Rain,Rain,0,2013-01-11 21:53:00
3:57 PM,69.8,66.2,88,30.04,3.0,Calm,Calm,-,0.01,Rain,Light Rain,0,2013-01-11 21:57:00
4:41 PM,69.8,68.0,94,30.04,9.0,SSE,4.6,-,0.02,Rain,Light Rain,160,2013-01-11 22:41:00
4:53 PM,71.1,68.0,90,30.04,7.0,SSE,5.8,-,0.02,Rain,Light Rain,160,2013-01-11 22:53:00
5:35 PM,69.8,68.0,94,30.05,10.0,SSE,4.6,-,0.01,,Overcast,150,2013-01-11 23:35:00
5:53 PM,71.1,68.0,90,30.05,10.0,South,5.8,-,0.01,Rain,Light Rain,180,2013-01-11 23:53:00
6:07 PM,71.6,68.0,88,30.06,2.5,South,8.1,-,0.10,Rain,Heavy Rain,170,2013-01-12 00:07:00
6:14 PM,69.8,68.0,94,30.06,5.0,SSE,9.2,-,0.11,Rain,Rain,160,2013-01-12 00:14:00
6:53 PM,71.1,66.9,87,30.05,5.0,South,10.4,19.6,0.17,Rain,Light Rain,180,2013-01-12 00:53:00
7:53 PM,70.0,66.9,90,30.06,9.0,South,9.2,-,0.03,Rain,Light Rain,170,2013-01-12 01:53:00
8:53 PM,69.1,66.9,93,30.06,9.0,South,6.9,-,0.05,Rain,Light Rain,170,2013-01-12 02:53:00
9:16 PM,69.8,66.2,88,30.08,3.0,West,9.2,-,0.06,Rain,Heavy Rain,280,2013-01-12 03:16:00
9:18 PM,69.8,66.2,88,30.09,2.5,West,8.1,-,0.08,Rain,Heavy Rain,280,2013-01-12 03:18:00
9:24 PM,69.8,66.2,88,30.08,1.2,West,9.2,-,0.20,Rain,Heavy Rain,280,2013-01-12 03:24:00
9:34 PM,69.8,66.2,88,30.08,3.0,South,3.5,-,0.24,Rain,Rain,190,2013-01-12 03:34:00
9:41 PM,69.8,66.2,88,30.08,4.0,South,5.8,-,0.26,Rain,Rain,180,2013-01-12 03:41:00
9:53 PM,69.1,66.9,93,30.07,3.0,SSE,9.2,-,0.32,Rain,Heavy Rain,160,2013-01-12 03:53:00
10:53 PM,68.0,66.0,93,30.05,10.0,ESE,3.5,-,0.06,,Overcast,120,2013-01-12 04:53:00
11:13 PM,69.8,66.2,88,30.06,10.0,Calm,Calm,-,N/A,,Overcast,0,2013-01-12 05:13:00
11:53 PM,69.1,66.9,93,30.06,8.0,SSE,5.8,-,N/A,,Overcast,150,2013-01-12 05:53:00